Location: Barnston
(51.8500°N, 0.4000°E)
Time: 03:46:00
(UTC+00:00)

NOSS 3-1 (A) - Pass Details

Date: 26 September 2023
Orbit: 677 x 1534 km, 63.4° (Epoch: 03 November)

Event Time Altitude Azimuth Distance (km) Brightness Sun altitude
Rises 04:04:16 0° 314° (NW) 3,757 6.3 -16.9°
Reaches altitude 10° 04:06:40 10° 314° (NW) 2,916 5.7 -16.5°
Maximum altitude 04:13:46 90° 237° (WSW) 1,255 4.0 -15.5°
Drops below altitude 10° 04:22:26 10° 138° (SE) 3,516 6.7 -14.2°
Sets 04:25:34 0° 138° (SE) 4,569 7.4 -13.8°
